This demonstration page uses our WeatherBlox Daily Observations layout. Learn more.

Left ArrowRight Arrow

30.00354, -91.81873

Hourly Observations for August 31, 2022

Temp ( °F °C ) Dew Point ( °F °C ) Humidity (%) Winds ( mph kmh ) Pressure ( in mb ) Visibility ( mi km ) Precip ( " mm )
12:53 am 00:53 Clear 75 23.9 72 22.2 90 90 Calm 30.00 1016 10 16 0.00 0.00
1:53 am 01:53 Clear 75 23.9 72 22.2 90 90 SSE 5 7 29.99 1016 10 16 0.00 0.00
2:53 am 02:53 Clear 74 23.3 72 22.2 94 94 NW 5 7 30.00 1016 10 16 0.00 0.00
3:53 am 03:53 Clear 74 23.3 72 22.2 94 94 N 5 7 30.00 1016 10 16 0.00 0.00
4:53 am 04:53 Clear 75 23.9 72 22.2 90 90 VRB 3 6 29.99 1016 10 16 0.00 0.00
5:53 am 05:53 Clear 75 23.9 72 22.2 90 90 NNE 5 7 30.00 1016 10 16 0.00 0.00
6:53 am 06:53 Sunny 75 23.9 72 22.2 90 90 NE 7 11 30.01 1016 10 16 0.00 0.00
7:53 am 07:53 Sunny 77 25 73 22.8 88 88 NE 5 7 30.03 1017 10 16 0.00 0.00
8:53 am 08:53 Sunny 81 27.2 74 23.3 79 79 NNE 8 13 30.04 1017 10 16 0.00 0.00
9:53 am 09:53 Sunny 84 28.9 74 23.3 72 72 NE 9 15 30.04 1017 10 16 0.00 0.00
10:53 am 10:53 Sunny 87 30.6 74 23.3 65 65 NE 7 11 30.05 1018 10 16 0.00 0.00
11:53 am 11:53 Sunny 90 32.2 73 22.8 58 58 NNE 10 17 30.04 1017 10 16 0.00 0.00
12:53 pm 12:53 Sunny 91 32.8 74 23.3 58 58 undefined N/A 30.02 1017 10 16 0.00 0.00
1:53 pm 13:53 Mostly Sunny 92 33.3 74 23.3 56 56 NE 7 11 30.00 1016 10 16 0.00 0.00
2:53 pm 14:53 Sunny 93 33.9 74 23.3 54 54 E 7 11 29.98 1015 10 16 0.00 0.00
3:53 pm 15:53 Partly Cloudy 94 34.4 74 23.3 53 53 NE 5 7 29.96 1015 10 16 0.00 0.00
4:53 pm 16:53 Mostly Sunny 93 33.9 72 22.2 51 51 Calm 29.93 1014 10 16 0.00 0.00
5:53 pm 17:53 Sunny 92 33.3 72 22.2 52 52 NE 3 6 29.93 1013 10 16 0.00 0.00
6:53 pm 18:53 Sunny 89 31.7 75 23.9 63 63 NNW 5 7 29.92 1013 10 16 0.00 0.00
7:53 pm 19:53 Clear 85 29.4 76 24.4 75 75 N 5 7 29.93 1014 10 16 0.00 0.00
8:53 pm 20:53 Clear 83 28.3 77 25 82 82 N 3 6 29.95 1014 10 16 0.00 0.00
9:42 pm 21:42 Clear with Nearby Thunderstorms 83 28.3 75 23.9 77 77 Calm 29.98 1015 10 16 0.00 0.00
9:53 pm 21:53 Clear with Nearby Thunderstorms 82 27.8 76 24.4 82 82 N 3 6 29.97 1015 10 16 0.00 0.00
10:02 pm 22:02 Clear 82 27.8 75 23.9 79 79 NNE 3 6 29.97 1015 10 16 0.00 0.00
10:53 pm 22:53 Clear 82 27.8 75 23.9 79 79 ENE 3 6 29.98 1015 10 16 0.00 0.00
11:53 pm 23:53 Mostly Clear 81 27.2 74 23.3 79 79 NE 3 6 29.98 1015 10 16 0.00 0.00

Powered by AerisWeather